Weather History for Longville, MN

Change the Weather History Date:

Thursday, October 13, 2011

  Actual Average (KPWC) Record (KPWC)
Temperature  
Mean Temperature 52 °F -  
Max Temperature 55 °F 53 °F 69 °F (2000)
Min Temperature 48 °F 34 °F 28 °F (2002)
Degree Days  
Heating Degree Days 14    
Growing Degree Days 2 (Base 50)    
Moisture  
Dew Point 45 °F    
Average Humidity 77    
Maximum Humidity 93    
Minimum Humidity 54    
Precipitation  
Precipitation 0.00 in - - ()
Sea Level Pressure  
Sea Level Pressure 29.62 in    
Wind  
Wind Speed 7 mph (WNW)    
Max Wind Speed 16 mph    
Max Gust Speed 24 mph    
Visibility 10 miles    
Events Rain , Thunderstorm    
Averages and records for this station are not official NWS values.
T = Trace of Precipitation, MM = Missing Value Source: NWS Daily Summary

Daily Weather History Graph

Daily Weather History Graph

Search for Another Location

Airport:

Trip Planner

Search our weather history database for the weather conditions in past years. The results will help you decide how hot, cold, wet, or windy it might be!

Date:

Astronomy

Oct. 13, 2011 Rise Set
Actual Time 7:31 AM CDT 6:33 PM CDT
Civil Twilight 7:01 AM CDT 7:04 PM CDT
Nautical Twilight 6:25 AM CDT 7:39 PM CDT
Astronomical Twilight 5:50 AM CDT 8:14 PM CDT
Moon 6:58 PM CDT (10/13) 9:14 AM CDT (10/13)
Length of Visible Light 12h 03m
Length of Day
11h 01m
Full, 98% of the Moon is Illuminated
Oct 13
Full
Oct 19
Last Quarter
Oct 26
New
Nov 2
First Quarter
Nov 10
Full

Hourly Weather History & Observations

Time (CDT) Temp. Windchill Dew Point Humidity Pressure Visibility Wind Dir Wind Speed Gust Speed Precip Events Conditions
12:17 AM 55.4 °F - 51.8 °F 88% 29.64 in 10.0 mi WNW 5.8 mph - N/A Thunderstorm Clear
12:37 AM 55.4 °F - 48.2 °F 77% 29.62 in 10.0 mi WNW 6.9 mph - N/A   Clear
12:57 AM 53.6 °F - 46.4 °F 77% 29.63 in 10.0 mi WSW 6.9 mph - N/A   Mostly Cloudy
1:17 AM 53.6 °F - 48.2 °F 82% 29.62 in 10.0 mi Calm Calm - N/A   Overcast
1:37 AM 53.6 °F - 48.2 °F 82% 29.62 in 10.0 mi Calm Calm - N/A   Overcast
1:57 AM 53.6 °F - 48.2 °F 82% 29.62 in 10.0 mi West 4.6 mph - N/A   Mostly Cloudy
2:17 AM 53.6 °F - 46.4 °F 77% 29.62 in 10.0 mi West 5.8 mph - N/A   Scattered Clouds
2:37 AM 53.6 °F - 48.2 °F 82% 29.62 in 10.0 mi West 6.9 mph - N/A   Scattered Clouds
2:57 AM 53.6 °F - 48.2 °F 82% 29.62 in 10.0 mi West 4.6 mph - N/A   Clear
3:17 AM 53.6 °F - 48.2 °F 82% 29.62 in 10.0 mi WNW 9.2 mph - N/A   Mostly Cloudy
3:37 AM 53.6 °F - 50.0 °F 88% 29.62 in 10.0 mi WNW 8.1 mph - N/A   Overcast
3:57 AM 53.6 °F - 50.0 °F 88% 29.62 in 10.0 mi WNW 6.9 mph - N/A   Mostly Cloudy
4:17 AM 53.6 °F - 50.0 °F 88% 29.63 in 10.0 mi WNW 5.8 mph - N/A   Scattered Clouds
4:37 AM 53.6 °F - 50.0 °F 88% 29.63 in 10.0 mi WNW 6.9 mph - N/A   Overcast
4:57 AM 53.6 °F - 50.0 °F 88% 29.63 in 10.0 mi NW 8.1 mph - N/A   Overcast
5:17 AM 53.6 °F - 50.0 °F 88% 29.63 in 10.0 mi WNW 6.9 mph - N/A   Overcast
5:37 AM 53.6 °F - 50.0 °F 88% 29.63 in 10.0 mi NW 5.8 mph - N/A   Overcast
5:57 AM 53.6 °F - 50.0 °F 88% 29.63 in 10.0 mi WNW 6.9 mph - N/A   Overcast
6:17 AM 53.6 °F - 48.2 °F 82% 29.63 in 10.0 mi WNW 8.1 mph - N/A   Mostly Cloudy
6:37 AM 51.8 °F - 48.2 °F 88% 29.63 in 10.0 mi WNW 6.9 mph - N/A   Scattered Clouds
6:57 AM 53.6 °F - 48.2 °F 82% 29.63 in 10.0 mi WNW 5.8 mph - N/A   Mostly Cloudy
7:19 AM 51.8 °F - 48.2 °F 88% 29.62 in 10.0 mi West 4.6 mph - N/A   Overcast
7:37 AM 51.8 °F - 48.2 °F 88% 29.62 in 10.0 mi West 4.6 mph - N/A   Overcast
7:57 AM 51.8 °F - 48.2 °F 88% 29.62 in 10.0 mi West 8.1 mph - N/A   Overcast
8:17 AM 51.8 °F - 48.2 °F 88% 29.62 in 10.0 mi West 8.1 mph - N/A   Overcast
8:37 AM 51.8 °F - 48.2 °F 88% 29.62 in 10.0 mi West 10.4 mph - N/A   Overcast
9:17 AM 50.0 °F - 46.4 °F 87% 29.63 in 10.0 mi WNW 10.4 mph - N/A   Overcast
9:57 AM 50.0 °F - 46.4 °F 87% 29.63 in 10.0 mi West 8.1 mph - N/A   Overcast
10:17 AM 50.0 °F - 46.4 °F 87% 29.63 in 10.0 mi WNW 10.4 mph - N/A   Overcast
10:37 AM 50.0 °F - 46.4 °F 87% 29.63 in 10.0 mi WNW 9.2 mph 18.4 mph N/A   Overcast
10:57 AM 50.0 °F - 46.4 °F 87% 29.63 in 10.0 mi WNW 10.4 mph 17.3 mph N/A   Overcast
11:17 AM 51.8 °F - 46.4 °F 82% 29.62 in 10.0 mi WNW 10.4 mph 17.3 mph N/A   Overcast
11:37 AM 51.8 °F - 46.4 °F 82% 29.62 in 10.0 mi WNW 8.1 mph 18.4 mph N/A   Overcast
11:57 AM 50.0 °F - 44.6 °F 82% 29.62 in 10.0 mi West 13.8 mph 20.7 mph N/A   Overcast
12:17 PM 50.0 °F - 44.6 °F 82% 29.62 in 10.0 mi WNW 12.7 mph 21.9 mph N/A   Overcast
12:37 PM 50.0 °F - 46.4 °F 87% 29.63 in 10.0 mi WNW 10.4 mph 17.3 mph N/A   Overcast
12:57 PM 50.0 °F - 46.4 °F 87% 29.62 in 10.0 mi WNW 11.5 mph 18.4 mph N/A   Overcast
1:18 PM 48.2 °F - 46.4 °F 93% 29.62 in 4.0 mi NW 8.1 mph 19.6 mph N/A Rain Light Rain
1:37 PM 50.0 °F - 46.4 °F 87% 29.62 in 10.0 mi WNW 13.8 mph 18.4 mph N/A   Overcast
1:57 PM 53.6 °F - 44.6 °F 72% 29.61 in 10.0 mi WNW 11.5 mph 21.9 mph N/A   Mostly Cloudy
2:17 PM 55.4 °F - 42.8 °F 63% 29.61 in 10.0 mi WNW 12.7 mph 20.7 mph N/A   Mostly Cloudy
2:37 PM 53.6 °F - 42.8 °F 67% 29.61 in 10.0 mi WNW 11.5 mph 19.6 mph N/A   Mostly Cloudy
2:57 PM 55.4 °F - 41.0 °F 58% 29.61 in 10.0 mi WNW 16.1 mph 24.2 mph N/A   Scattered Clouds
3:17 PM 55.4 °F - 39.2 °F 54% 29.61 in 10.0 mi WNW 10.4 mph 20.7 mph N/A   Mostly Cloudy
3:37 PM 55.4 °F - 39.2 °F 54% 29.61 in 10.0 mi WNW 16.1 mph 24.2 mph N/A   Scattered Clouds
3:56 PM 55.4 °F - 41.0 °F 58% 29.62 in 10.0 mi WNW 12.7 mph 20.7 mph N/A   Scattered Clouds
4:17 PM 53.6 °F - 39.2 °F 58% 29.62 in 10.0 mi WNW 9.2 mph 18.4 mph N/A   Mostly Cloudy
4:37 PM 55.4 °F - 39.2 °F 54% 29.62 in 10.0 mi WNW 9.2 mph 17.3 mph N/A   Mostly Cloudy
4:57 PM 55.4 °F - 39.2 °F 54% 29.62 in 10.0 mi WNW 9.2 mph 19.6 mph N/A   Mostly Cloudy
5:17 PM 53.6 °F - 39.2 °F 58% 29.62 in 10.0 mi WNW 13.8 mph 21.9 mph N/A   Scattered Clouds
5:37 PM 53.6 °F - 39.2 °F 58% 29.62 in 10.0 mi NW 10.4 mph 16.1 mph N/A   Clear
5:57 PM 51.8 °F - 39.2 °F 62% 29.62 in 10.0 mi NW 8.1 mph 17.3 mph N/A   Scattered Clouds
6:17 PM 51.8 °F - 39.2 °F 62% 29.62 in 10.0 mi WNW 8.1 mph - N/A   Mostly Cloudy
6:37 PM 51.8 °F - 39.2 °F 62% 29.62 in 10.0 mi WNW 4.6 mph - N/A   Scattered Clouds
6:57 PM 51.8 °F - 39.2 °F 62% 29.62 in 10.0 mi NW 8.1 mph - N/A   Mostly Cloudy
7:17 PM 51.8 °F - 39.2 °F 62% 29.62 in 10.0 mi WNW 4.6 mph - N/A   Mostly Cloudy
8:17 PM 48.2 °F - 39.2 °F 71% 29.63 in 10.0 mi WNW 5.8 mph - N/A   Scattered Clouds
8:37 PM 48.2 °F - 39.2 °F 71% 29.63 in 10.0 mi WNW 5.8 mph - N/A   Scattered Clouds
9:17 PM 48.2 °F - 39.2 °F 71% 29.63 in 10.0 mi WNW 4.6 mph - N/A   Scattered Clouds
9:37 PM 48.2 °F - 39.2 °F 71% 29.63 in 10.0 mi WNW 9.2 mph - N/A   Scattered Clouds
9:57 PM 48.2 °F - 39.2 °F 71% 29.63 in 10.0 mi WNW 6.9 mph 18.4 mph N/A   Scattered Clouds
10:17 PM 46.4 °F 42.4 °F 39.2 °F 76% 29.63 in 10.0 mi WNW 8.1 mph - N/A   Clear
10:57 PM 46.4 °F 40.4 °F 39.2 °F 76% 29.63 in 10.0 mi WNW 13.8 mph 17.3 mph N/A   Clear
11:17 PM 46.4 °F 41.1 °F 39.2 °F 76% 29.62 in 10.0 mi WNW 11.5 mph 18.4 mph N/A   Clear
11:37 PM 46.4 °F 42.4 °F 39.2 °F 76% 29.62 in 10.0 mi WNW 8.1 mph - N/A   Scattered Clouds
11:57 PM 44.6 °F 40.2 °F 39.2 °F 81% 29.62 in 10.0 mi NW 8.1 mph 17.3 mph N/A   Clear